CZ-4 DEB, 26142

Orbit data source: Space-Track

CZ-4 DEB, 26142 is space debris in LEO originally from a launch on Thu, 14 Oct 1999 UTC launched from the Taiyaun Space Center, China (TSC). Debris objects in space refer to the collection of defunct objects orbiting the Earth. Examples of debris include non-operational satellites, rocket bodies, and fragments generated from explosions, collisions, or faulty payload assembly.

Loading next visibility...
CZ-4 DEB details
Identifier
26142, 1999-057AE
Orbit
LEO
Last TLE update1 day ago
Origin
Flag of CNCNSA (CN / PRC)
ManufacturerUnknown
MissionSpacecraft
Bus & MotorUnknown
MassUnknown
Launch date (UTC)
1999-10-14 (25 years ago)
Launch vehicleUnknown
Launch site
Taiyaun Space Center, China (TSC)
Object type
Payload
Rocket body
Debris
Shape & HBRUnknown
Radar Cross SectionSmall (<0.1 m²)

Expand to show TLE details & history

TLE from 1 day ago
0 CZ-4 DEB
1 26142U 99057AE  24347.21540744  .00000917  00000-0  57653-3 0  9998
2 26142  98.7815 251.4176 0298787 205.1358 310.3970 13.86882677247873
Epoch: 2024-12-12T05:10Z
Definitive object data (Epoch: 2024-12-12T05:10:11.202Z)
Latitude26.83329°
Longitude-83.07001°
Altitude804.985 km
Speed7.523 km/s
True Right ascension05h 03m 30s
True Declination26° 41' 45"
Sunlit
Object was in full shadow at TLE epoch
Visualization TLE readout
Latitude-26.67082°
Longitude-90.5875°
Altitude731.76 km
Speed7.599 km/s
Apparent Right ascension03h 41m 23s
Apparent Declination-33° 39' 42"
Sunlit
Object is in full shadow
Visualization observer readout
Local Sidereal Time14:33:27
Azimuth289.406° WNW
Elevation-75.062°
Doppler factor1
Orbital elements
Apogee altitude1,155.339 km
Perigee altitude718.218 km
Semi-major axis7,314.915 km
Eccentricity0.0298787
Inclination98.7815°
RAAN251.4176°
Arg. of periapsis205.1358°
True anomaly307.72585°
Mean anomaly310.397°
Eccentric anomaly309.06786°
Mean motion3.4692 °/min
BSTAR0.00057653
Orbital period103.77 mins
Loading maneuver chart data...
Loading historical data...
Loading historical data...
Loading historical data...
Loading historical data...
Loading historical data...
Loading historical data...
Loading historical data...

CZ-4 DEB Visibility forecast

Observer location: undefined°, undefined

Span
Click to sort rows by Start time (UTC) header in descending order
Start Az.
Max El. time (UTC)
Max El. Az.
Max El.
End time (UTC)
End Az.
12 mins2024-12-13 16:53:36.477Z133.094° SE2024-12-13 16:59:36.477Z72.929° E32.841°2024-12-13 17:05:36.477Z3.151° NNE
10 mins2024-12-13 18:37:36.477Z204.592° SW2024-12-13 18:42:36.477Z269.958° W31.998°2024-12-13 18:47:36.477Z326.048° NNW
5 mins2024-12-14 05:33:36.477Z62.673° ENE2024-12-14 05:35:36.477Z89.469° E17.998°2024-12-14 05:38:36.477Z129.113° SE
8 mins2024-12-14 07:14:36.477Z358.639° N2024-12-14 07:18:36.477Z291.562° WNW37.36°2024-12-14 07:22:36.477Z219.782° SW
|